{"data":{"norad_id":65778,"intl_designator":"2025-217S","name":"KUIPER-00165","alt_names":[],"object_type":"PAYLOAD","status":"ACTIVE","operator":null,"country":"US","launch_date":"2025-09-25","launch_site_code":"AFETR","launch_vehicle":null,"mission":null,"orbit_class":"UNKNOWN","rcs_meters":null,"size_class":null,"mass_kg":null,"dimensions":null,"purposes":[],"wikipedia_slug":null,"has_3d_model":false,"image_url":null,"decayed_at":null,"tle_current":{"epoch":"2026-09-20T06:41:11.232672Z","epoch_age_seconds":165895,"freshness":"FRESH","line1":"1 65778U 25217S   26263.27860223 -.00001130  00000+0 -11919-3 0  9999","line2":"2 65778  51.8935 255.1307 0000659 114.9739 245.1292 14.79963848 53791","mean_motion":14.79963848,"eccentricity":6.59e-5,"inclination_deg":51.8935,"raan_deg":255.1307,"arg_perigee_deg":114.9739,"mean_anomaly_deg":245.1292,"bstar":-0.00011919,"rev_number":5379,"period_min":97.299674039065,"perigee_km":628.97645216555,"apogee_km":629.90005058368,"semimajor_km":7007.5752513746,"source":"CELESTRAK","updated_at":"2026-09-21T09:00:15.560652Z"}}}